SPACEMOBILE-010

Last updated on Sat Aug 15 2026 00:02:08 GMT+0000 (Coordinated Universal Time)

1 69591U 26139C 26226.61853679 .00000588 00000+0 50311-4 0 9998 2 69591 52.9964 357.3788 0005506 118.3837 241.7710 15.12626749 8839
UTC large
Height (km)
Speed (km/s)
/
Latitude / Longitude
Inclination (degrees)
Orbital Period (minutes)
Azimuth
Elevation
Range (km)
Doppler Factor

Next 0 passes for location: London (51.5072 / 0.1276)

No passes found over London.
SPACEMOBILE-010